Denver Centennial, CO

11:14 AM MDT on March 29, 2017 (GMT -0600)
Centennial

Weather History for KAPA - December, 2012

Change the Weather History Date:

Tuesday, December 4, 2012

  Actual Average Record
Temperature  
Mean Temperature 39 °F -  
Max Temperature 56 °F 43 °F 68 °F (2007)
Min Temperature 21 °F 20 °F -8 °F (2013)
Degree Days  
Heating Degree Days 26    
Month to date heating degree days 81  
Moisture  
Dew Point 13 °F    
Average Humidity 39    
Maximum Humidity 65    
Minimum Humidity 13    
Precipitation  
Precipitation 0.00 in - - ()
Month to date precipitation 0.00  
Year to date precipitation 13.64  
Sea Level Pressure  
Sea Level Pressure 30.26 in    
Wind  
Wind Speed 5 mph (South)    
Max Wind Speed 13 mph    
Max Gust Speed 15 mph    
Visibility 10 miles    
Events      
Averages and records for this station are not official NWS values.
T = Trace of Precipitation, MM = Missing Value Source: NWS Daily Summary

Daily Weather History Graph

Daily Weather History Graph

Search for Another Location

Airport or City:

Trip Planner

Search our weather history database for the weather conditions in past years. The results will help you decide how hot, cold, wet, or windy it might be!

Date:

Astronomy

Dec. 04, 2012 Rise Set
Actual Time 7:04 AM MST 4:35 PM MST
Civil Twilight 6:34 AM MST 5:05 PM MST
Nautical Twilight 6:00 AM MST 5:38 PM MST
Astronomical Twilight 5:28 AM MST 6:11 PM MST
Moon 10:24 PM MST (12/4) 11:00 AM MST (12/4)
Length of Visible Light 10h 31m
Length of Day
9h 31m
Waning Gibbous, 69% of the Moon is Illuminated
Dec 4
Waning Gibbous
Dec 6
Last Quarter
Dec 13
New
Dec 19
First Quarter
Dec 28
Full

Hourly Weather History & Observations

Time (MST) Temp. Windchill Dew Point Humidity Pressure Visibility Wind Dir Wind Speed Gust Speed Precip Events Conditions
12:53 AM 28.9 °F 25.2 °F 15.1 °F 56% 30.22 in 10.0 mi South 3.5 mph - N/A   Partly Cloudy
1:53 AM 30.0 °F 25.2 °F 15.1 °F 54% 30.24 in 10.0 mi SSE 4.6 mph - N/A   Partly Cloudy
2:53 AM 27.0 °F 21.6 °F 15.1 °F 61% 30.26 in 10.0 mi SSW 4.6 mph - N/A   Partly Cloudy
3:53 AM 26.1 °F 20.5 °F 14.0 °F 60% 30.30 in 10.0 mi SSW 4.6 mph - N/A   Partly Cloudy
4:53 AM 26.1 °F 20.5 °F 14.0 °F 60% 30.33 in 10.0 mi SSW 4.6 mph - N/A   Clear
5:53 AM 23.0 °F 18.4 °F 12.0 °F 63% 30.38 in 10.0 mi South 3.5 mph - N/A   Partly Cloudy
6:53 AM 27.0 °F 19.5 °F 12.9 °F 56% 30.37 in 10.0 mi South 6.9 mph - N/A   Scattered Clouds
7:53 AM 26.1 °F - 14.0 °F 60% 30.40 in 10.0 mi Calm Calm - N/A   Scattered Clouds
8:53 AM 36.0 °F 32.1 °F 16.0 °F 44% 30.36 in 10.0 mi SE 4.6 mph - N/A   Mostly Cloudy
9:53 AM 39.9 °F 35.1 °F 16.0 °F 38% 30.37 in 10.0 mi SE 6.9 mph - N/A   Mostly Cloudy
10:53 AM 50.0 °F - 5.0 °F 16% 30.30 in 10.0 mi South 6.9 mph - N/A   Mostly Cloudy
11:53 AM 52.0 °F - 1.0 °F 12% 30.26 in 10.0 mi South 3.5 mph - N/A   Mostly Cloudy
12:53 PM 51.1 °F - 10.9 °F 20% 30.25 in 10.0 mi North 9.2 mph - N/A   Mostly Cloudy
1:53 PM 55.0 °F - 9.0 °F 16% 30.19 in 10.0 mi North 5.8 mph - N/A   Scattered Clouds
2:53 PM 55.0 °F - 7.0 °F 15% 30.20 in 10.0 mi Calm Calm - N/A   Mostly Cloudy
3:53 PM 52.0 °F - 10.0 °F 19% 30.19 in 10.0 mi Calm Calm - N/A   Scattered Clouds
4:53 PM 45.0 °F 42.6 °F 10.0 °F 24% 30.23 in 10.0 mi West 4.6 mph - N/A   Scattered Clouds
5:53 PM 41.0 °F 38.0 °F 10.9 °F 29% 30.27 in 10.0 mi South 4.6 mph - N/A   Scattered Clouds
6:53 PM 41.0 °F 36.4 °F 12.9 °F 32% 30.24 in 10.0 mi South 6.9 mph - N/A   Mostly Cloudy
7:53 PM 44.1 °F 39.5 °F 14.0 °F 30% 30.24 in 10.0 mi South 8.1 mph - N/A   Overcast
8:53 PM 43.0 °F 38.2 °F 15.1 °F 32% 30.22 in 10.0 mi South 8.1 mph - N/A   Mostly Cloudy
9:53 PM 42.1 °F 39.2 °F 16.0 °F 35% 30.21 in 10.0 mi SE 4.6 mph - N/A   Overcast
10:53 PM 43.0 °F 39.5 °F 19.0 °F 38% 30.16 in 10.0 mi South 5.8 mph - N/A   Overcast
11:53 PM 46.0 °F 42.5 °F 19.0 °F 34% 30.12 in 10.0 mi SE 6.9 mph - N/A   Overcast